Year,Month,Day,Hour,Minute,Value (Times are PST for temperature in C)
2014,04,26,00,00,2.90
2014,04,26,00,01,2.90
2014,04,26,00,02,2.90
2014,04,26,00,03,2.80
2014,04,26,00,04,2.80
2014,04,26,00,05,2.80
2014,04,26,00,06,2.80
2014,04,26,00,07,2.80
2014,04,26,00,08,2.80
2014,04,26,00,09,2.80
2014,04,26,00,10,2.80
2014,04,26,00,11,2.70
2014,04,26,00,12,2.70
2014,04,26,00,13,2.70
2014,04,26,00,14,2.70
2014,04,26,00,15,2.70
2014,04,26,00,16,2.70
2014,04,26,00,17,2.70
2014,04,26,00,18,2.70
2014,04,26,00,19,2.70
2014,04,26,00,20,2.70
2014,04,26,00,21,2.70
2014,04,26,00,22,2.70
2014,04,26,00,23,2.70
2014,04,26,00,24,2.70
2014,04,26,00,25,2.70
2014,04,26,00,26,2.70
2014,04,26,00,27,2.70
2014,04,26,00,28,2.70
2014,04,26,00,29,2.70
2014,04,26,00,30,2.60
2014,04,26,00,31,2.60
2014,04,26,00,32,2.60
2014,04,26,00,33,2.60
2014,04,26,00,34,2.60
2014,04,26,00,35,2.60
2014,04,26,00,36,2.50
2014,04,26,00,37,2.50
2014,04,26,00,38,2.50
2014,04,26,00,39,2.50
2014,04,26,00,40,2.50
2014,04,26,00,41,2.50
2014,04,26,00,42,2.50
2014,04,26,00,43,2.40
2014,04,26,00,44,2.40
2014,04,26,00,45,2.40
2014,04,26,00,46,2.40
2014,04,26,00,47,2.40
2014,04,26,00,48,2.40
2014,04,26,00,49,2.40
2014,04,26,00,50,2.40
2014,04,26,00,51,2.40
2014,04,26,00,52,2.40
2014,04,26,00,53,2.40
2014,04,26,00,54,2.40
2014,04,26,00,55,2.40
2014,04,26,00,56,2.40
2014,04,26,00,57,2.40
2014,04,26,00,58,2.40
2014,04,26,00,59,2.40
2014,04,26,01,00,2.40
2014,04,26,01,01,2.40
2014,04,26,01,02,2.40
2014,04,26,01,03,2.30
2014,04,26,01,04,2.30
2014,04,26,01,05,2.30
2014,04,26,01,06,2.30
2014,04,26,01,07,2.30
2014,04,26,01,08,2.30
2014,04,26,01,09,2.30
2014,04,26,01,10,2.20
2014,04,26,01,11,2.20
2014,04,26,01,12,2.20
2014,04,26,01,13,2.20
2014,04,26,01,14,2.20
2014,04,26,01,15,2.20
2014,04,26,01,16,2.20
2014,04,26,01,17,2.20
2014,04,26,01,18,2.20
2014,04,26,01,19,2.20
2014,04,26,01,20,2.20
2014,04,26,01,21,2.20
2014,04,26,01,22,2.20
2014,04,26,01,23,2.20
2014,04,26,01,24,2.20
2014,04,26,01,25,2.20
2014,04,26,01,26,2.20
2014,04,26,01,27,2.20
2014,04,26,01,28,2.20
2014,04,26,01,29,2.20
2014,04,26,01,30,2.10
2014,04,26,01,31,2.10
2014,04,26,01,32,2.10
2014,04,26,01,33,2.10
2014,04,26,01,34,2.10
2014,04,26,01,35,2.10
2014,04,26,01,36,2.10
2014,04,26,01,37,2.10
2014,04,26,01,38,2.00
2014,04,26,01,39,2.00
2014,04,26,01,40,2.00
2014,04,26,01,41,2.00
2014,04,26,01,42,2.00
2014,04,26,01,43,2.00
2014,04,26,01,44,2.00
2014,04,26,01,45,2.00
2014,04,26,01,46,2.00
2014,04,26,01,47,2.00
2014,04,26,01,48,2.00
2014,04,26,01,49,1.90
2014,04,26,01,50,1.90
2014,04,26,01,51,1.90
2014,04,26,01,52,1.90
2014,04,26,01,53,1.90
2014,04,26,01,54,1.90
2014,04,26,01,55,1.90
2014,04,26,01,56,1.80
2014,04,26,01,57,1.80
2014,04,26,01,58,1.80
2014,04,26,01,59,1.80
2014,04,26,02,00,1.80
2014,04,26,02,01,1.80
2014,04,26,02,02,1.80
2014,04,26,02,03,1.80
2014,04,26,02,04,1.80
2014,04,26,02,05,1.80
2014,04,26,02,06,1.80
2014,04,26,02,07,1.80
2014,04,26,02,08,1.80
2014,04,26,02,09,1.80
2014,04,26,02,10,1.80
2014,04,26,02,11,1.80
2014,04,26,02,12,1.80
2014,04,26,02,13,1.80
2014,04,26,02,14,1.80
2014,04,26,02,15,1.80
2014,04,26,02,16,1.80
2014,04,26,02,17,1.80
2014,04,26,02,18,1.80
2014,04,26,02,19,1.70
2014,04,26,02,20,1.70
2014,04,26,02,21,1.70
2014,04,26,02,22,1.70
2014,04,26,02,23,1.70
2014,04,26,02,24,1.70
2014,04,26,02,25,1.70
2014,04,26,02,26,1.70
2014,04,26,02,27,1.70
2014,04,26,02,28,1.70
2014,04,26,02,29,1.70
2014,04,26,02,30,1.70
2014,04,26,02,31,1.70
2014,04,26,02,32,1.70
2014,04,26,02,33,1.70
2014,04,26,02,34,1.70
2014,04,26,02,35,1.60
2014,04,26,02,36,1.60
2014,04,26,02,37,1.60
2014,04,26,02,38,1.60
2014,04,26,02,39,1.60
2014,04,26,02,40,1.60
2014,04,26,02,41,1.50
2014,04,26,02,42,1.50
2014,04,26,02,43,1.50
2014,04,26,02,44,1.50
2014,04,26,02,45,1.50
2014,04,26,02,46,1.50
2014,04,26,02,47,1.50
2014,04,26,02,48,1.50
2014,04,26,02,49,1.50
2014,04,26,02,50,1.50
2014,04,26,02,51,1.50
2014,04,26,02,52,1.40
2014,04,26,02,53,1.40
2014,04,26,02,54,1.40
2014,04,26,02,55,1.40
2014,04,26,02,56,1.40
2014,04,26,02,57,1.40
2014,04,26,02,58,1.40
2014,04,26,02,59,1.40
2014,04,26,03,00,1.40
2014,04,26,03,01,1.40
2014,04,26,03,02,1.30
2014,04,26,03,03,1.30
2014,04,26,03,04,1.30
2014,04,26,03,05,1.30
2014,04,26,03,06,1.30
2014,04,26,03,07,1.30
2014,04,26,03,08,1.30
2014,04,26,03,09,1.30
2014,04,26,03,10,1.30
2014,04,26,03,11,1.30
2014,04,26,03,12,1.30
2014,04,26,03,13,1.30
2014,04,26,03,14,1.30
2014,04,26,03,15,1.30
2014,04,26,03,16,1.30
2014,04,26,03,17,1.30
2014,04,26,03,18,1.30
2014,04,26,03,19,1.30
2014,04,26,03,20,1.30
2014,04,26,03,21,1.30
2014,04,26,03,22,1.30
2014,04,26,03,23,1.30
2014,04,26,03,24,1.30
2014,04,26,03,25,1.30
2014,04,26,03,26,1.30
2014,04,26,03,27,1.30
2014,04,26,03,28,1.30
2014,04,26,03,29,1.30
2014,04,26,03,30,1.30
2014,04,26,03,31,1.30
2014,04,26,03,32,1.30
2014,04,26,03,33,1.30
2014,04,26,03,34,1.30
2014,04,26,03,35,1.30
2014,04,26,03,36,1.30
2014,04,26,03,37,1.30
2014,04,26,03,38,1.30
2014,04,26,03,39,1.30
2014,04,26,03,40,1.30
2014,04,26,03,41,1.30
2014,04,26,03,42,1.30
2014,04,26,03,43,1.30
2014,04,26,03,44,1.30
2014,04,26,03,45,1.30
2014,04,26,03,46,1.30
2014,04,26,03,47,1.30
2014,04,26,03,48,1.30
2014,04,26,03,49,1.30
2014,04,26,03,50,1.30
2014,04,26,03,51,1.30
2014,04,26,03,52,1.30
2014,04,26,03,53,1.30
2014,04,26,03,54,1.30
2014,04,26,03,55,1.30
2014,04,26,03,56,1.40
2014,04,26,03,57,1.40
2014,04,26,03,58,1.50
2014,04,26,03,59,1.50
2014,04,26,04,00,1.50
2014,04,26,04,01,1.60
2014,04,26,04,02,1.60
2014,04,26,04,03,1.60
2014,04,26,04,04,1.60
2014,04,26,04,05,1.80
2014,04,26,04,06,1.90
2014,04,26,04,07,2.00
2014,04,26,04,08,2.00
2014,04,26,04,09,2.10
2014,04,26,04,10,2.30
2014,04,26,04,11,2.30
2014,04,26,04,12,2.40
2014,04,26,04,13,2.40
2014,04,26,04,14,2.40
2014,04,26,04,15,2.50
2014,04,26,04,16,2.50
2014,04,26,04,17,2.50
2014,04,26,04,18,2.60
2014,04,26,04,19,2.70
2014,04,26,04,20,2.70
2014,04,26,04,21,2.70
2014,04,26,04,22,2.80
2014,04,26,04,23,2.80
2014,04,26,04,24,2.80
2014,04,26,04,25,2.90
2014,04,26,04,26,2.90
2014,04,26,04,27,2.90
2014,04,26,04,28,2.90
2014,04,26,04,29,2.90
2014,04,26,04,30,2.90
2014,04,26,04,31,3.00
2014,04,26,04,32,3.10
2014,04,26,04,33,3.20
2014,04,26,04,34,3.20
2014,04,26,04,35,3.20
2014,04,26,04,36,3.20
2014,04,26,04,37,3.20
2014,04,26,04,38,3.20
2014,04,26,04,39,3.20
2014,04,26,04,40,3.20
2014,04,26,04,41,3.20
2014,04,26,04,42,3.20
2014,04,26,04,43,3.10
2014,04,26,04,44,3.10
2014,04,26,04,45,3.10
2014,04,26,04,46,3.10
2014,04,26,04,47,3.20
2014,04,26,04,48,3.20
2014,04,26,04,49,3.20
2014,04,26,04,50,3.10
2014,04,26,04,51,3.10
2014,04,26,04,52,3.10
2014,04,26,04,53,3.10
2014,04,26,04,54,3.10
2014,04,26,04,55,3.10
2014,04,26,04,56,3.10
2014,04,26,04,57,3.10
2014,04,26,04,58,3.10
2014,04,26,04,59,3.10
2014,04,26,05,00,3.10
2014,04,26,05,01,3.10
2014,04,26,05,02,3.10
2014,04,26,05,03,3.10
2014,04,26,05,04,3.10
2014,04,26,05,05,3.10
2014,04,26,05,06,3.10
2014,04,26,05,07,3.10
2014,04,26,05,08,3.10
2014,04,26,05,09,3.10
2014,04,26,05,10,3.10
2014,04,26,05,11,3.10
2014,04,26,05,12,3.10
2014,04,26,05,13,3.10
2014,04,26,05,14,3.10
2014,04,26,05,15,3.10
2014,04,26,05,16,3.10
2014,04,26,05,17,3.10
2014,04,26,05,18,3.10
2014,04,26,05,19,3.10
2014,04,26,05,20,3.10
2014,04,26,05,21,3.10
2014,04,26,05,22,3.10
2014,04,26,05,23,3.10
2014,04,26,05,24,3.10
2014,04,26,05,25,3.10
2014,04,26,05,26,3.10
2014,04,26,05,27,3.10
2014,04,26,05,28,3.10
2014,04,26,05,29,3.10
2014,04,26,05,30,3.10
2014,04,26,05,31,3.10
2014,04,26,05,32,3.10
2014,04,26,05,33,3.10
2014,04,26,05,34,3.10
2014,04,26,05,35,3.10
2014,04,26,05,36,3.10
2014,04,26,05,37,3.10
2014,04,26,05,38,3.10
2014,04,26,05,39,3.10
2014,04,26,05,40,3.10
2014,04,26,05,41,3.10
2014,04,26,05,42,3.10
2014,04,26,05,43,3.10
2014,04,26,05,44,3.10
2014,04,26,05,45,3.10
2014,04,26,05,46,3.20
2014,04,26,05,47,3.20
2014,04,26,05,48,3.20
2014,04,26,05,49,3.20
2014,04,26,05,50,3.20
2014,04,26,05,51,3.20
2014,04,26,05,52,3.20
2014,04,26,05,53,3.30
2014,04,26,05,54,3.30
2014,04,26,05,55,3.30
2014,04,26,05,56,3.30
2014,04,26,05,57,3.30
2014,04,26,05,58,3.30
2014,04,26,05,59,3.30
2014,04,26,06,00,3.30
2014,04,26,06,01,3.30
2014,04,26,06,02,3.30
2014,04,26,06,03,3.40
2014,04,26,06,04,3.40
2014,04,26,06,05,3.40
2014,04,26,06,06,3.40
2014,04,26,06,07,3.40
2014,04,26,06,08,3.40
2014,04,26,06,09,3.40
2014,04,26,06,10,3.40
2014,04,26,06,11,3.40
2014,04,26,06,12,3.40
2014,04,26,06,13,3.30
2014,04,26,06,14,3.30
2014,04,26,06,15,3.30
2014,04,26,06,16,3.30
2014,04,26,06,17,3.30
2014,04,26,06,18,3.30
2014,04,26,06,19,3.30
2014,04,26,06,20,3.30
2014,04,26,06,21,3.30
2014,04,26,06,22,3.30
2014,04,26,06,23,3.30
2014,04,26,06,24,3.30
2014,04,26,06,25,3.30
2014,04,26,06,26,3.30
2014,04,26,06,27,3.30
2014,04,26,06,28,3.30
2014,04,26,06,29,3.30
2014,04,26,06,30,3.30
2014,04,26,06,31,3.30
2014,04,26,06,32,3.40
2014,04,26,06,33,3.40
2014,04,26,06,34,3.40
2014,04,26,06,35,3.40
2014,04,26,06,36,3.40
2014,04,26,06,37,3.40
2014,04,26,06,38,3.40
2014,04,26,06,39,3.50
2014,04,26,06,40,3.50
2014,04,26,06,41,3.50
2014,04,26,06,42,3.50
2014,04,26,06,43,3.50
2014,04,26,06,44,3.50
2014,04,26,06,45,3.50
2014,04,26,06,46,3.50
2014,04,26,06,47,3.50
2014,04,26,06,48,3.60
2014,04,26,06,49,3.60
2014,04,26,06,50,3.60
2014,04,26,06,51,3.60
2014,04,26,06,52,3.60
2014,04,26,06,53,3.60
2014,04,26,06,54,3.60
2014,04,26,06,55,3.60
2014,04,26,06,56,3.60
2014,04,26,06,57,3.50
2014,04,26,06,58,3.50
2014,04,26,06,59,3.50
2014,04,26,07,00,3.50
2014,04,26,07,01,3.50
2014,04,26,07,02,3.50
2014,04,26,07,03,3.50
2014,04,26,07,04,3.50
2014,04,26,07,05,3.50
2014,04,26,07,06,3.50
2014,04,26,07,07,3.50
2014,04,26,07,08,3.50
2014,04,26,07,09,3.50
2014,04,26,07,10,3.50
2014,04,26,07,11,3.50
2014,04,26,07,12,3.50
2014,04,26,07,13,3.50
2014,04,26,07,14,3.40
2014,04,26,07,15,3.40
2014,04,26,07,16,3.40
2014,04,26,07,17,3.40
2014,04,26,07,18,3.40
2014,04,26,07,19,3.40
2014,04,26,07,20,3.40
2014,04,26,07,21,3.40
2014,04,26,07,22,3.40
2014,04,26,07,23,3.40
2014,04,26,07,24,3.40
2014,04,26,07,25,3.40
2014,04,26,07,26,3.40
2014,04,26,07,27,3.40
2014,04,26,07,28,3.40
2014,04,26,07,29,3.40
2014,04,26,07,30,3.40
2014,04,26,07,31,3.40
2014,04,26,07,32,3.40
2014,04,26,07,33,3.40
2014,04,26,07,34,3.40
2014,04,26,07,35,3.40
2014,04,26,07,36,3.40
2014,04,26,07,37,3.40
2014,04,26,07,38,3.40
2014,04,26,07,39,3.40
2014,04,26,07,40,3.40
2014,04,26,07,41,3.40
2014,04,26,07,42,3.40
2014,04,26,07,43,3.40
2014,04,26,07,44,3.40
2014,04,26,07,45,3.40
2014,04,26,07,46,3.40
2014,04,26,07,47,3.40
2014,04,26,07,48,3.40
2014,04,26,07,49,3.40
2014,04,26,07,50,3.50
2014,04,26,07,51,3.50
2014,04,26,07,52,3.50
2014,04,26,07,53,3.50
2014,04,26,07,54,3.50
2014,04,26,07,55,3.50
2014,04,26,07,56,3.50
2014,04,26,07,57,3.50
2014,04,26,07,58,3.60
2014,04,26,07,59,3.60
2014,04,26,08,00,3.60
2014,04,26,08,01,3.70
2014,04,26,08,02,3.70
2014,04,26,08,03,3.70
2014,04,26,08,04,3.80
2014,04,26,08,05,3.80
2014,04,26,08,06,3.80
2014,04,26,08,07,3.80
2014,04,26,08,08,3.90
2014,04,26,08,09,4.00
2014,04,26,08,10,4.00
2014,04,26,08,11,4.10
2014,04,26,08,12,4.20
2014,04,26,08,13,4.30
2014,04,26,08,14,4.30
2014,04,26,08,15,4.40
2014,04,26,08,16,4.40
2014,04,26,08,17,4.50
2014,04,26,08,18,4.60
2014,04,26,08,19,4.60
2014,04,26,08,20,4.70
2014,04,26,08,21,4.80
2014,04,26,08,22,4.90
2014,04,26,08,23,4.90
2014,04,26,08,24,5.00
2014,04,26,08,25,5.10
2014,04,26,08,26,5.10
2014,04,26,08,27,5.20
2014,04,26,08,28,5.20
2014,04,26,08,29,5.30
2014,04,26,08,30,5.30
2014,04,26,08,31,5.30
2014,04,26,08,32,5.40
2014,04,26,08,33,5.50
2014,04,26,08,34,5.50
2014,04,26,08,35,5.50
2014,04,26,08,36,5.50
2014,04,26,08,37,5.60
2014,04,26,08,38,5.60
2014,04,26,08,39,5.70
2014,04,26,08,40,5.80
2014,04,26,08,41,5.90
2014,04,26,08,42,6.10
2014,04,26,08,43,6.20
2014,04,26,08,44,6.30
2014,04,26,08,45,6.40
2014,04,26,08,46,6.40
2014,04,26,08,47,6.50
2014,04,26,08,48,6.60
2014,04,26,08,49,6.70
2014,04,26,08,50,6.80
2014,04,26,08,51,6.80
2014,04,26,08,52,6.80
2014,04,26,08,53,6.80
2014,04,26,08,54,6.90
2014,04,26,08,55,6.90
2014,04,26,08,56,6.90
2014,04,26,08,57,7.00
2014,04,26,08,58,7.00
2014,04,26,08,59,7.10
2014,04,26,09,00,7.10
2014,04,26,09,01,7.20
2014,04,26,09,02,7.30
2014,04,26,09,03,7.30
2014,04,26,09,04,7.30
2014,04,26,09,05,7.50
2014,04,26,09,06,7.50
2014,04,26,09,07,7.60
2014,04,26,09,08,7.70
2014,04,26,09,09,7.80
2014,04,26,09,10,7.80
2014,04,26,09,11,7.90
2014,04,26,09,12,7.90
2014,04,26,09,13,7.90
2014,04,26,09,14,7.90
2014,04,26,09,15,8.00
2014,04,26,09,16,8.10
2014,04,26,09,17,8.10
2014,04,26,09,18,8.10
2014,04,26,09,19,8.10
2014,04,26,09,20,8.10
2014,04,26,09,21,8.10
2014,04,26,09,22,8.10
2014,04,26,09,23,8.20
2014,04,26,09,24,8.20
2014,04,26,09,25,8.20
2014,04,26,09,26,8.30
2014,04,26,09,27,8.30
2014,04,26,09,28,8.30
2014,04,26,09,29,8.40
2014,04,26,09,30,8.40
2014,04,26,09,31,8.50
2014,04,26,09,32,8.60
2014,04,26,09,33,8.70
2014,04,26,09,34,8.70
2014,04,26,09,35,8.70
2014,04,26,09,36,8.80
2014,04,26,09,37,8.80
2014,04,26,09,38,8.90
2014,04,26,09,39,8.90
2014,04,26,09,40,9.00
2014,04,26,09,41,9.10
2014,04,26,09,42,9.20
2014,04,26,09,43,9.20
2014,04,26,09,44,9.30
2014,04,26,09,45,9.40
2014,04,26,09,46,9.50
2014,04,26,09,47,9.50
2014,04,26,09,48,9.60
2014,04,26,09,49,9.60
2014,04,26,09,50,9.70
2014,04,26,09,51,9.70
2014,04,26,09,52,9.70
2014,04,26,09,53,9.80
2014,04,26,09,54,9.80
2014,04,26,09,55,9.90
2014,04,26,09,56,9.90
2014,04,26,09,57,9.80
2014,04,26,09,58,9.70
2014,04,26,09,59,9.60
2014,04,26,10,00,9.50
2014,04,26,10,01,9.50
2014,04,26,10,02,9.50
2014,04,26,10,03,9.50
2014,04,26,10,04,9.50
2014,04,26,10,05,9.50
2014,04,26,10,06,9.50
2014,04,26,10,07,9.50
2014,04,26,10,08,9.60
2014,04,26,10,09,9.60
2014,04,26,10,10,9.50
2014,04,26,10,11,9.30
2014,04,26,10,12,9.20
2014,04,26,10,13,9.20
2014,04,26,10,14,9.20
2014,04,26,10,15,9.20
2014,04,26,10,16,9.10
2014,04,26,10,17,9.10
2014,04,26,10,18,9.10
2014,04,26,10,19,9.00
2014,04,26,10,20,9.00
2014,04,26,10,21,9.00
2014,04,26,10,22,9.10
2014,04,26,10,23,9.10
2014,04,26,10,24,9.10
2014,04,26,10,25,9.10
2014,04,26,10,26,9.10
2014,04,26,10,27,9.20
2014,04,26,10,28,9.20
2014,04,26,10,29,9.20
2014,04,26,10,30,9.20
2014,04,26,10,31,9.20
2014,04,26,10,32,9.40
2014,04,26,10,33,9.50
2014,04,26,10,34,9.50
2014,04,26,10,35,9.70
2014,04,26,10,36,9.90
2014,04,26,10,37,10.00
2014,04,26,10,38,10.10
2014,04,26,10,39,10.10
2014,04,26,10,40,10.20
2014,04,26,10,41,10.20
2014,04,26,10,42,10.20
2014,04,26,10,43,10.30
2014,04,26,10,44,10.40
2014,04,26,10,45,10.40
2014,04,26,10,46,10.30
2014,04,26,10,47,10.30
2014,04,26,10,48,10.20
2014,04,26,10,49,10.20
2014,04,26,10,50,10.10
2014,04,26,10,51,10.10
2014,04,26,10,52,10.10
2014,04,26,10,53,10.10
2014,04,26,10,54,10.10
2014,04,26,10,55,10.10
2014,04,26,10,56,10.20
2014,04,26,10,57,10.20
2014,04,26,10,58,10.30
2014,04,26,10,59,10.40
2014,04,26,11,00,10.60
2014,04,26,11,01,10.70
2014,04,26,11,02,10.80
2014,04,26,11,03,10.90
2014,04,26,11,04,10.90
2014,04,26,11,05,10.80
2014,04,26,11,06,10.70
2014,04,26,11,07,10.60
2014,04,26,11,08,10.60
2014,04,26,11,09,10.60
2014,04,26,11,10,10.70
2014,04,26,11,11,10.80
2014,04,26,11,12,10.90
2014,04,26,11,13,11.00
2014,04,26,11,14,11.20
2014,04,26,11,15,11.30
2014,04,26,11,16,11.50
2014,04,26,11,17,11.60
2014,04,26,11,18,11.60
2014,04,26,11,19,11.70
2014,04,26,11,20,11.60
2014,04,26,11,21,11.60
2014,04,26,11,22,11.60
2014,04,26,11,23,11.50
2014,04,26,11,24,11.40
2014,04,26,11,25,11.40
2014,04,26,11,26,11.30
2014,04,26,11,27,11.20
2014,04,26,11,28,11.00
2014,04,26,11,29,10.90
2014,04,26,11,30,10.70
2014,04,26,11,31,10.70
2014,04,26,11,32,10.60
2014,04,26,11,33,10.60
2014,04,26,11,34,10.60
2014,04,26,11,35,10.60
2014,04,26,11,36,10.50
2014,04,26,11,37,10.40
2014,04,26,11,38,10.40
2014,04,26,11,39,10.40
2014,04,26,11,40,10.40
2014,04,26,11,41,10.40
2014,04,26,11,42,10.40
2014,04,26,11,43,10.30
2014,04,26,11,44,10.30
2014,04,26,11,45,10.20
2014,04,26,11,46,10.10
2014,04,26,11,47,10.00
2014,04,26,11,48,9.90
2014,04,26,11,49,9.90
2014,04,26,11,50,9.90
2014,04,26,11,51,9.90
2014,04,26,11,52,9.90
2014,04,26,11,53,9.90
2014,04,26,11,54,10.00
2014,04,26,11,55,10.10
2014,04,26,11,56,10.10
2014,04,26,11,57,10.10
2014,04,26,11,58,10.20
2014,04,26,11,59,10.20
2014,04,26,12,00,10.30
2014,04,26,12,01,10.40
2014,04,26,12,02,10.40
2014,04,26,12,03,10.40
2014,04,26,12,04,10.40
2014,04,26,12,05,10.40
2014,04,26,12,06,10.40
2014,04,26,12,07,10.40
2014,04,26,12,08,10.40
2014,04,26,12,09,10.40
2014,04,26,12,10,10.40
2014,04,26,12,11,10.30
2014,04,26,12,12,10.30
2014,04,26,12,13,10.40
2014,04,26,12,14,10.40
2014,04,26,12,15,10.40
2014,04,26,12,16,10.50
2014,04,26,12,17,10.60
2014,04,26,12,18,10.60
2014,04,26,12,19,10.50
2014,04,26,12,20,10.50
2014,04,26,12,21,10.60
2014,04,26,12,22,10.60
2014,04,26,12,23,10.50
2014,04,26,12,24,10.50
2014,04,26,12,25,10.60
2014,04,26,12,26,10.60
2014,04,26,12,27,10.60
2014,04,26,12,28,10.70
2014,04,26,12,29,10.70
2014,04,26,12,30,10.80
2014,04,26,12,31,10.80
2014,04,26,12,32,10.80
2014,04,26,12,33,10.80
2014,04,26,12,34,10.80
2014,04,26,12,35,10.80
2014,04,26,12,36,10.80
2014,04,26,12,37,10.80
2014,04,26,12,38,10.70
2014,04,26,12,39,10.70
2014,04,26,12,40,10.70
2014,04,26,12,41,10.60
2014,04,26,12,42,10.70
2014,04,26,12,43,10.70
2014,04,26,12,44,10.70
2014,04,26,12,45,10.60
2014,04,26,12,46,10.60
2014,04,26,12,47,10.60
2014,04,26,12,48,10.60
2014,04,26,12,49,10.60
2014,04,26,12,50,10.70
2014,04,26,12,51,10.70
2014,04,26,12,52,10.80
2014,04,26,12,53,10.80
2014,04,26,12,54,10.90
2014,04,26,12,55,10.90
2014,04,26,12,56,10.90
2014,04,26,12,57,10.90
2014,04,26,12,58,10.90
2014,04,26,12,59,10.90
2014,04,26,13,00,10.90
2014,04,26,13,01,10.90
2014,04,26,13,02,11.00
2014,04,26,13,03,10.90
2014,04,26,13,04,10.90
2014,04,26,13,05,10.90
2014,04,26,13,06,10.80
2014,04,26,13,07,10.70
2014,04,26,13,08,10.50
2014,04,26,13,09,10.30
2014,04,26,13,10,10.20
2014,04,26,13,11,10.20
2014,04,26,13,12,10.20
2014,04,26,13,13,10.20
2014,04,26,13,14,10.20
2014,04,26,13,15,10.30
2014,04,26,13,16,10.30
2014,04,26,13,17,10.40
2014,04,26,13,18,10.50
2014,04,26,13,19,10.60
2014,04,26,13,20,10.60
2014,04,26,13,21,10.60
2014,04,26,13,22,10.60
2014,04,26,13,23,10.60
2014,04,26,13,24,10.60
2014,04,26,13,25,10.60
2014,04,26,13,26,10.60
2014,04,26,13,27,10.50
2014,04,26,13,28,10.50
2014,04,26,13,29,10.60
2014,04,26,13,30,10.60
2014,04,26,13,31,10.60
2014,04,26,13,32,10.60
2014,04,26,13,33,10.70
2014,04,26,13,34,10.80
2014,04,26,13,35,10.80
2014,04,26,13,36,10.90
2014,04,26,13,37,10.80
2014,04,26,13,38,10.90
2014,04,26,13,39,10.90
2014,04,26,13,40,10.80
2014,04,26,13,41,10.70
2014,04,26,13,42,10.60
2014,04,26,13,43,10.60
2014,04,26,13,44,10.60
2014,04,26,13,45,10.60
2014,04,26,13,46,10.70
2014,04,26,13,47,10.70
2014,04,26,13,48,10.70
2014,04,26,13,49,10.70
2014,04,26,13,50,10.70
2014,04,26,13,51,10.80
2014,04,26,13,52,10.90
2014,04,26,13,53,10.90
2014,04,26,13,54,10.90
2014,04,26,13,55,10.90
2014,04,26,13,56,10.90
2014,04,26,13,57,11.00
2014,04,26,13,58,11.00
2014,04,26,13,59,11.00
2014,04,26,14,00,11.10
2014,04,26,14,01,11.10
2014,04,26,14,02,11.10
2014,04,26,14,03,11.10
2014,04,26,14,04,11.10
2014,04,26,14,05,11.10
2014,04,26,14,06,11.10
2014,04,26,14,07,11.10
2014,04,26,14,08,11.20
2014,04,26,14,09,11.20
2014,04,26,14,10,11.20
2014,04,26,14,11,11.30
2014,04,26,14,12,11.30
2014,04,26,14,13,11.40
2014,04,26,14,14,11.40
2014,04,26,14,15,11.40
2014,04,26,14,16,11.50
2014,04,26,14,17,11.60
2014,04,26,14,18,11.60
2014,04,26,14,19,11.60
2014,04,26,14,20,11.60
2014,04,26,14,21,11.60
2014,04,26,14,22,11.60
2014,04,26,14,23,11.60
2014,04,26,14,24,11.50
2014,04,26,14,25,11.40
2014,04,26,14,26,11.40
2014,04,26,14,27,11.40
2014,04,26,14,28,11.40
2014,04,26,14,29,11.30
2014,04,26,14,30,11.30
2014,04,26,14,31,11.30
2014,04,26,14,32,11.30
2014,04,26,14,33,11.30
2014,04,26,14,34,11.20
2014,04,26,14,35,11.10
2014,04,26,14,36,11.10
2014,04,26,14,37,11.10
2014,04,26,14,38,11.10
2014,04,26,14,39,11.10
2014,04,26,14,40,11.10
2014,04,26,14,41,11.10
2014,04,26,14,42,11.10
2014,04,26,14,43,11.10
2014,04,26,14,44,11.10
2014,04,26,14,45,11.10
2014,04,26,14,46,11.10
2014,04,26,14,47,11.10
2014,04,26,14,48,11.10
2014,04,26,14,49,11.00
2014,04,26,14,50,10.90
2014,04,26,14,51,10.90
2014,04,26,14,52,10.90
2014,04,26,14,53,10.90
2014,04,26,14,54,10.80
2014,04,26,14,55,10.70
2014,04,26,14,56,10.70
2014,04,26,14,57,10.70
2014,04,26,14,58,10.70
2014,04,26,14,59,10.60
2014,04,26,15,00,10.60
2014,04,26,15,01,10.60
2014,04,26,15,02,10.60
2014,04,26,15,03,10.60
2014,04,26,15,04,10.60
2014,04,26,15,05,10.60
2014,04,26,15,06,10.60
2014,04,26,15,07,10.60
2014,04,26,15,08,10.60
2014,04,26,15,09,10.50
2014,04,26,15,10,10.40
2014,04,26,15,11,10.40
2014,04,26,15,12,10.40
2014,04,26,15,13,10.40
2014,04,26,15,14,10.50
2014,04,26,15,15,10.60
2014,04,26,15,16,10.60
2014,04,26,15,17,10.60
2014,04,26,15,18,10.60
2014,04,26,15,19,10.50
2014,04,26,15,20,10.60
2014,04,26,15,21,10.40
2014,04,26,15,22,10.40
2014,04,26,15,23,10.40
2014,04,26,15,24,10.40
2014,04,26,15,25,10.40
2014,04,26,15,26,10.40
2014,04,26,15,27,10.40
2014,04,26,15,28,10.40
2014,04,26,15,29,10.40
2014,04,26,15,30,10.40
2014,04,26,15,31,10.50
2014,04,26,15,32,10.60
2014,04,26,15,33,10.60
2014,04,26,15,34,10.60
2014,04,26,15,35,10.60
2014,04,26,15,36,10.60
2014,04,26,15,37,10.60
2014,04,26,15,38,10.70
2014,04,26,15,39,10.70
2014,04,26,15,40,10.70
2014,04,26,15,41,10.70
2014,04,26,15,42,10.80
2014,04,26,15,43,10.80
2014,04,26,15,44,10.80
2014,04,26,15,45,10.80
2014,04,26,15,46,10.90
2014,04,26,15,47,10.90
2014,04,26,15,48,10.90
2014,04,26,15,49,10.90
2014,04,26,15,50,10.90
2014,04,26,15,51,11.00
2014,04,26,15,52,11.10
2014,04,26,15,53,11.10
2014,04,26,15,54,11.20
2014,04,26,15,55,11.20
2014,04,26,15,56,11.30
2014,04,26,15,57,11.30
2014,04,26,15,58,11.30
2014,04,26,15,59,11.20
2014,04,26,16,00,11.10
2014,04,26,16,01,11.10
2014,04,26,16,02,11.10
2014,04,26,16,03,11.10
2014,04,26,16,04,11.10
2014,04,26,16,05,11.10
2014,04,26,16,06,11.10
2014,04,26,16,07,11.10
2014,04,26,16,08,11.10
2014,04,26,16,09,11.10
2014,04,26,16,10,11.20
2014,04,26,16,11,11.10
2014,04,26,16,12,11.10
2014,04,26,16,13,11.10
2014,04,26,16,14,11.10
2014,04,26,16,15,11.00
2014,04,26,16,16,10.90
2014,04,26,16,17,10.90
2014,04,26,16,18,10.90
2014,04,26,16,19,10.90
2014,04,26,16,20,10.80
2014,04,26,16,21,10.80
2014,04,26,16,22,10.80
2014,04,26,16,23,10.80
2014,04,26,16,24,10.70
2014,04,26,16,25,10.70
2014,04,26,16,26,10.70
2014,04,26,16,27,10.70
2014,04,26,16,28,10.70
2014,04,26,16,29,10.60
2014,04,26,16,30,10.60
2014,04,26,16,31,10.60
2014,04,26,16,32,10.60
2014,04,26,16,33,10.60
2014,04,26,16,34,10.60
2014,04,26,16,35,10.60
2014,04,26,16,36,10.60
2014,04,26,16,37,10.70
2014,04,26,16,38,10.70
2014,04,26,16,39,10.80
2014,04,26,16,40,10.90
2014,04,26,16,41,10.90
2014,04,26,16,42,10.90
2014,04,26,16,43,10.90
2014,04,26,16,44,10.90
2014,04,26,16,45,10.90
2014,04,26,16,46,10.90
2014,04,26,16,47,10.90
2014,04,26,16,48,10.90
2014,04,26,16,49,10.90
2014,04,26,16,50,10.90
2014,04,26,16,51,10.90
2014,04,26,16,52,10.80
2014,04,26,16,53,10.80
2014,04,26,16,54,10.80
2014,04,26,16,55,10.70
2014,04,26,16,56,10.60
2014,04,26,16,57,10.60
2014,04,26,16,58,10.60
2014,04,26,16,59,10.50
2014,04,26,17,00,10.40
2014,04,26,17,01,10.40
2014,04,26,17,02,10.40
2014,04,26,17,03,10.40
2014,04,26,17,04,10.40
2014,04,26,17,05,10.40
2014,04,26,17,06,10.40
2014,04,26,17,07,10.40
2014,04,26,17,08,10.40
2014,04,26,17,09,10.40
2014,04,26,17,10,10.40
2014,04,26,17,11,10.40
2014,04,26,17,12,10.50
2014,04,26,17,13,10.60
2014,04,26,17,14,10.60
2014,04,26,17,15,10.60
2014,04,26,17,16,10.60
2014,04,26,17,17,10.60
2014,04,26,17,18,10.60
2014,04,26,17,19,10.60
2014,04,26,17,20,10.60
2014,04,26,17,21,10.60
2014,04,26,17,22,10.60
2014,04,26,17,23,10.60
2014,04,26,17,24,10.60
2014,04,26,17,25,10.60
2014,04,26,17,26,10.60
2014,04,26,17,27,10.60
2014,04,26,17,28,10.60
2014,04,26,17,29,10.60
2014,04,26,17,30,10.60
2014,04,26,17,31,10.60
2014,04,26,17,32,10.60
2014,04,26,17,33,10.50
2014,04,26,17,34,10.40
2014,04,26,17,35,10.40
2014,04,26,17,36,10.40
2014,04,26,17,37,10.40
2014,04,26,17,38,10.30
2014,04,26,17,39,10.30
2014,04,26,17,40,10.30
2014,04,26,17,41,10.20
2014,04,26,17,42,10.20
2014,04,26,17,43,10.20
2014,04,26,17,44,10.10
2014,04,26,17,45,10.10
2014,04,26,17,46,10.10
2014,04,26,17,47,10.10